#datetime,building,power
2022-11-07T00:00:00,crh,14.35
2022-11-07T00:01:00,crh,12.59
2022-11-07T00:02:00,crh,14.00
2022-11-07T00:03:00,crh,3.31
2022-11-07T00:04:00,crh,3.26
2022-11-07T00:05:00,crh,3.25
2022-11-07T00:06:00,crh,5.22
2022-11-07T00:07:00,crh,5.26
2022-11-07T00:08:00,crh,4.86
2022-11-07T00:09:00,crh,5.28
2022-11-07T00:10:00,crh,3.69
2022-11-07T00:11:00,crh,9.56
2022-11-07T00:12:00,crh,8.93
2022-11-07T00:13:00,crh,7.48
2022-11-07T00:14:00,crh,7.51
2022-11-07T00:15:00,crh,9.07
2022-11-07T00:16:00,crh,9.12
2022-11-07T00:17:00,crh,3.69
2022-11-07T00:18:00,crh,4.85
2022-11-07T00:19:00,crh,3.66
2022-11-07T00:20:00,crh,3.67
2022-11-07T00:21:00,crh,5.20
2022-11-07T00:22:00,crh,4.81
2022-11-07T00:23:00,crh,3.24
2022-11-07T00:24:00,crh,3.17
2022-11-07T00:25:00,crh,4.73
2022-11-07T00:26:00,crh,5.94
2022-11-07T00:27:00,crh,3.21
2022-11-07T00:28:00,crh,4.76
2022-11-07T00:29:00,crh,4.87
2022-11-07T00:30:00,crh,3.27
2022-11-07T00:31:00,crh,4.83
2022-11-07T00:32:00,crh,4.77
2022-11-07T00:33:00,crh,4.79
2022-11-07T00:34:00,crh,3.21
2022-11-07T00:35:00,crh,3.21
2022-11-07T00:36:00,crh,3.20
2022-11-07T00:37:00,crh,3.21
2022-11-07T00:38:00,crh,3.20
2022-11-07T00:39:00,crh,3.22
2022-11-07T00:40:00,crh,3.15
2022-11-07T00:41:00,crh,3.14
2022-11-07T00:42:00,crh,6.72
2022-11-07T00:43:00,crh,5.25
2022-11-07T00:44:00,crh,6.87
2022-11-07T00:45:00,crh,6.46
2022-11-07T00:46:00,crh,5.29
2022-11-07T00:47:00,crh,5.26
2022-11-07T00:48:00,crh,3.15
2022-11-07T00:49:00,crh,3.15
2022-11-07T00:50:00,crh,3.15
2022-11-07T00:51:00,crh,3.30
2022-11-07T00:52:00,crh,5.13
2022-11-07T00:53:00,crh,5.11
2022-11-07T00:54:00,crh,8.70
2022-11-07T00:55:00,crh,7.30
2022-11-07T00:56:00,crh,7.35
2022-11-07T00:57:00,crh,7.39
2022-11-07T00:58:00,crh,8.94
2022-11-07T00:59:00,crh,7.58
2022-11-07T01:00:00,crh,3.54
2022-11-07T01:01:00,crh,3.54
2022-11-07T01:02:00,crh,3.54
2022-11-07T01:03:00,crh,3.58
2022-11-07T01:04:00,crh,5.08
2022-11-07T01:05:00,crh,5.07
2022-11-07T01:06:00,crh,3.55
2022-11-07T01:07:00,crh,3.54
2022-11-07T01:08:00,crh,3.54
2022-11-07T01:09:00,crh,3.23
2022-11-07T01:10:00,crh,4.74
2022-11-07T01:11:00,crh,4.73
2022-11-07T01:12:00,crh,3.84
2022-11-07T01:13:00,crh,3.29
2022-11-07T01:14:00,crh,3.28
2022-11-07T01:15:00,crh,3.31
2022-11-07T01:16:00,crh,3.32
2022-11-07T01:17:00,crh,4.84
2022-11-07T01:18:00,crh,3.24
2022-11-07T01:19:00,crh,4.77
2022-11-07T01:20:00,crh,3.22
2022-11-07T01:21:00,crh,3.23
2022-11-07T01:22:00,crh,3.22
2022-11-07T01:23:00,crh,3.22
2022-11-07T01:24:00,crh,4.76
2022-11-07T01:25:00,crh,4.79
2022-11-07T01:26:00,crh,3.22
2022-11-07T01:27:00,crh,3.22
2022-11-07T01:28:00,crh,3.22
2022-11-07T01:29:00,crh,3.51
2022-11-07T01:30:00,crh,3.22
2022-11-07T01:31:00,crh,3.22
2022-11-07T01:32:00,crh,3.22
2022-11-07T01:33:00,crh,3.22
2022-11-07T01:34:00,crh,3.21
2022-11-07T01:35:00,crh,3.21
2022-11-07T01:36:00,crh,3.22
2022-11-07T01:37:00,crh,3.21
2022-11-07T01:38:00,crh,3.21
2022-11-07T01:39:00,crh,7.23
2022-11-07T01:40:00,crh,10.65
2022-11-07T01:41:00,crh,10.95
2022-11-07T01:42:00,crh,9.46
2022-11-07T01:43:00,crh,9.49
2022-11-07T01:44:00,crh,7.39
2022-11-07T01:45:00,crh,3.53
2022-11-07T01:46:00,crh,3.52
2022-11-07T01:47:00,crh,5.15
2022-11-07T01:48:00,crh,5.16
2022-11-07T01:49:00,crh,5.15
2022-11-07T01:50:00,crh,3.58
2022-11-07T01:51:00,crh,3.59
2022-11-07T01:52:00,crh,5.13
2022-11-07T01:53:00,crh,3.59
2022-11-07T01:54:00,crh,3.58
2022-11-07T01:55:00,crh,5.14
2022-11-07T01:56:00,crh,3.18
2022-11-07T01:57:00,crh,3.12
2022-11-07T01:58:00,crh,3.13
2022-11-07T01:59:00,crh,3.13
2022-11-07T02:00:00,crh,3.12
2022-11-07T02:01:00,crh,3.12
2022-11-07T02:02:00,crh,3.12
2022-11-07T02:03:00,crh,3.12
2022-11-07T02:04:00,crh,3.11
2022-11-07T02:05:00,crh,4.81
2022-11-07T02:06:00,crh,3.11
2022-11-07T02:07:00,crh,3.12
2022-11-07T02:08:00,crh,3.13
2022-11-07T02:09:00,crh,3.13
2022-11-07T02:10:00,crh,4.66
2022-11-07T02:11:00,crh,3.11
2022-11-07T02:12:00,crh,3.11
2022-11-07T02:13:00,crh,3.12
2022-11-07T02:14:00,crh,3.11
2022-11-07T02:15:00,crh,3.11
2022-11-07T02:16:00,crh,3.14
2022-11-07T02:17:00,crh,4.83
2022-11-07T02:18:00,crh,3.13
2022-11-07T02:19:00,crh,3.13
2022-11-07T02:20:00,crh,3.26
2022-11-07T02:21:00,crh,3.11
2022-11-07T02:22:00,crh,3.38
2022-11-07T02:23:00,crh,4.65
2022-11-07T02:24:00,crh,4.67
2022-11-07T02:25:00,crh,6.85
2022-11-07T02:26:00,crh,6.97
2022-11-07T02:27:00,crh,7.64
2022-11-07T02:28:00,crh,9.07
2022-11-07T02:29:00,crh,9.05
2022-11-07T02:30:00,crh,3.68
2022-11-07T02:31:00,crh,3.68
2022-11-07T02:32:00,crh,5.22
2022-11-07T02:33:00,crh,5.66
2022-11-07T02:34:00,crh,7.23
2022-11-07T02:35:00,crh,5.65
2022-11-07T02:36:00,crh,7.26
2022-11-07T02:37:00,crh,5.70
2022-11-07T02:38:00,crh,3.62
2022-11-07T02:39:00,crh,3.63
2022-11-07T02:40:00,crh,3.62
2022-11-07T02:41:00,crh,3.62
2022-11-07T02:42:00,crh,5.16
2022-11-07T02:43:00,crh,3.22
2022-11-07T02:44:00,crh,3.23
2022-11-07T02:45:00,crh,3.22
2022-11-07T02:46:00,crh,3.25
2022-11-07T02:47:00,crh,3.23
2022-11-07T02:48:00,crh,3.22
2022-11-07T02:49:00,crh,3.22
2022-11-07T02:50:00,crh,4.77
2022-11-07T02:51:00,crh,3.22
2022-11-07T02:52:00,crh,3.21
2022-11-07T02:53:00,crh,3.21
2022-11-07T02:54:00,crh,4.20
2022-11-07T02:55:00,crh,4.68
2022-11-07T02:56:00,crh,3.13
2022-11-07T02:57:00,crh,4.70
2022-11-07T02:58:00,crh,3.12
2022-11-07T02:59:00,crh,3.12
2022-11-07T03:00:00,crh,3.13
2022-11-07T03:01:00,crh,3.12
2022-11-07T03:02:00,crh,3.13
2022-11-07T03:03:00,crh,4.67
2022-11-07T03:04:00,crh,4.69
2022-11-07T03:05:00,crh,3.19
2022-11-07T03:06:00,crh,3.19
2022-11-07T03:07:00,crh,4.77
2022-11-07T03:08:00,crh,4.77
2022-11-07T03:09:00,crh,4.77
2022-11-07T03:10:00,crh,8.37
2022-11-07T03:11:00,crh,6.96
2022-11-07T03:12:00,crh,8.12
2022-11-07T03:13:00,crh,6.99
2022-11-07T03:14:00,crh,8.48
2022-11-07T03:15:00,crh,5.09
2022-11-07T03:16:00,crh,5.08
2022-11-07T03:17:00,crh,3.57
2022-11-07T03:18:00,crh,3.53
2022-11-07T03:19:00,crh,3.52
2022-11-07T03:20:00,crh,5.08
2022-11-07T03:21:00,crh,5.07
2022-11-07T03:22:00,crh,3.52
2022-11-07T03:23:00,crh,3.52
2022-11-07T03:24:00,crh,3.52
2022-11-07T03:25:00,crh,3.51
2022-11-07T03:26:00,crh,3.60
2022-11-07T03:27:00,crh,7.13
2022-11-07T03:28:00,crh,5.59
2022-11-07T03:29:00,crh,5.57
2022-11-07T03:30:00,crh,5.75
2022-11-07T03:31:00,crh,5.68
2022-11-07T03:32:00,crh,5.46
2022-11-07T03:33:00,crh,3.23
2022-11-07T03:34:00,crh,3.23
2022-11-07T03:35:00,crh,3.23
2022-11-07T03:36:00,crh,4.77
2022-11-07T03:37:00,crh,3.23
2022-11-07T03:38:00,crh,4.38
2022-11-07T03:39:00,crh,3.21
2022-11-07T03:40:00,crh,4.77
2022-11-07T03:41:00,crh,3.23
2022-11-07T03:42:00,crh,3.22
2022-11-07T03:43:00,crh,3.29
2022-11-07T03:44:00,crh,3.29
2022-11-07T03:45:00,crh,14.36
2022-11-07T03:46:00,crh,12.61
2022-11-07T03:47:00,crh,14.04
2022-11-07T03:48:00,crh,3.74
2022-11-07T03:49:00,crh,3.29
2022-11-07T03:50:00,crh,3.28
2022-11-07T03:51:00,crh,3.27
2022-11-07T03:52:00,crh,4.80
2022-11-07T03:53:00,crh,4.74
2022-11-07T03:54:00,crh,7.65
2022-11-07T03:55:00,crh,6.88
2022-11-07T03:56:00,crh,6.94
2022-11-07T03:57:00,crh,7.05
2022-11-07T03:58:00,crh,8.46
2022-11-07T03:59:00,crh,4.75
2022-11-07T04:00:00,crh,3.21
2022-11-07T04:01:00,crh,3.20
2022-11-07T04:02:00,crh,3.20
2022-11-07T04:03:00,crh,3.24
2022-11-07T04:04:00,crh,4.34
2022-11-07T04:05:00,crh,5.39
2022-11-07T04:06:00,crh,5.01
2022-11-07T04:07:00,crh,5.01
2022-11-07T04:08:00,crh,3.51
2022-11-07T04:09:00,crh,5.00
2022-11-07T04:10:00,crh,3.47
2022-11-07T04:11:00,crh,5.00
2022-11-07T04:12:00,crh,3.46
2022-11-07T04:13:00,crh,3.46
2022-11-07T04:14:00,crh,3.46
2022-11-07T04:15:00,crh,3.45
2022-11-07T04:16:00,crh,3.46
2022-11-07T04:17:00,crh,3.46
2022-11-07T04:18:00,crh,5.03
2022-11-07T04:19:00,crh,3.96
2022-11-07T04:20:00,crh,3.45
2022-11-07T04:21:00,crh,3.52
2022-11-07T04:22:00,crh,3.14
2022-11-07T04:23:00,crh,3.22
2022-11-07T04:24:00,crh,4.67
2022-11-07T04:25:00,crh,4.66
2022-11-07T04:26:00,crh,4.67
2022-11-07T04:27:00,crh,3.12
2022-11-07T04:28:00,crh,3.12
2022-11-07T04:29:00,crh,3.12
2022-11-07T04:30:00,crh,6.33
2022-11-07T04:31:00,crh,5.08
2022-11-07T04:32:00,crh,5.23
2022-11-07T04:33:00,crh,5.13
2022-11-07T04:34:00,crh,6.71
2022-11-07T04:35:00,crh,6.68
2022-11-07T04:36:00,crh,3.06
2022-11-07T04:37:00,crh,3.08
2022-11-07T04:38:00,crh,3.08
2022-11-07T04:39:00,crh,4.08
2022-11-07T04:40:00,crh,4.62
2022-11-07T04:41:00,crh,4.21
2022-11-07T04:42:00,crh,3.08
2022-11-07T04:43:00,crh,7.32
2022-11-07T04:44:00,crh,7.36
2022-11-07T04:45:00,crh,6.90
2022-11-07T04:46:00,crh,6.96
2022-11-07T04:47:00,crh,8.50
2022-11-07T04:48:00,crh,4.73
2022-11-07T04:49:00,crh,4.40
2022-11-07T04:50:00,crh,3.18
2022-11-07T04:51:00,crh,3.18
2022-11-07T04:52:00,crh,3.83
2022-11-07T04:53:00,crh,4.73
2022-11-07T04:54:00,crh,3.18
2022-11-07T04:55:00,crh,3.17
2022-11-07T04:56:00,crh,3.17
2022-11-07T04:57:00,crh,5.90
2022-11-07T04:58:00,crh,5.16
2022-11-07T04:59:00,crh,5.19
2022-11-07T05:00:00,crh,5.20
2022-11-07T05:01:00,crh,3.63
2022-11-07T05:02:00,crh,3.63
2022-11-07T05:03:00,crh,3.63
2022-11-07T05:04:00,crh,3.62
2022-11-07T05:05:00,crh,3.62
2022-11-07T05:06:00,crh,3.61
2022-11-07T05:07:00,crh,5.15
2022-11-07T05:08:00,crh,5.16
2022-11-07T05:09:00,crh,3.54
2022-11-07T05:10:00,crh,3.54
2022-11-07T05:11:00,crh,3.54
2022-11-07T05:12:00,crh,3.54
2022-11-07T05:13:00,crh,3.54
2022-11-07T05:14:00,crh,3.45
2022-11-07T05:15:00,crh,3.06
2022-11-07T05:16:00,crh,3.07
2022-11-07T05:17:00,crh,3.06
2022-11-07T05:18:00,crh,4.61
2022-11-07T05:19:00,crh,3.06
2022-11-07T05:20:00,crh,3.06
2022-11-07T05:21:00,crh,3.07
2022-11-07T05:22:00,crh,3.06
2022-11-07T05:23:00,crh,4.61
2022-11-07T05:24:00,crh,4.62
2022-11-07T05:25:00,crh,4.63
2022-11-07T05:26:00,crh,3.07
2022-11-07T05:27:00,crh,4.63
2022-11-07T05:28:00,crh,3.07
2022-11-07T05:29:00,crh,3.12
2022-11-07T05:30:00,crh,3.06
2022-11-07T05:31:00,crh,3.06
2022-11-07T05:32:00,crh,3.07
2022-11-07T05:33:00,crh,6.59
2022-11-07T05:34:00,crh,6.71
2022-11-07T05:35:00,crh,6.78
2022-11-07T05:36:00,crh,6.81
2022-11-07T05:37:00,crh,4.67
2022-11-07T05:38:00,crh,4.69
2022-11-07T05:39:00,crh,3.12
2022-11-07T05:40:00,crh,4.69
2022-11-07T05:41:00,crh,3.13
2022-11-07T05:42:00,crh,3.13
2022-11-07T05:43:00,crh,5.11
2022-11-07T05:44:00,crh,5.14
2022-11-07T05:45:00,crh,5.13
2022-11-07T05:46:00,crh,5.13
2022-11-07T05:47:00,crh,5.10
2022-11-07T05:48:00,crh,6.66
2022-11-07T05:49:00,crh,4.61
2022-11-07T05:50:00,crh,3.07
2022-11-07T05:51:00,crh,3.07
2022-11-07T05:52:00,crh,4.60
2022-11-07T05:53:00,crh,4.71
2022-11-07T05:54:00,crh,3.18
2022-11-07T05:55:00,crh,4.73
2022-11-07T05:56:00,crh,3.23
2022-11-07T05:57:00,crh,3.18
2022-11-07T05:58:00,crh,3.21
2022-11-07T05:59:00,crh,3.17
2022-11-07T06:00:00,crh,3.18
2022-11-07T06:01:00,crh,3.19
2022-11-07T06:02:00,crh,4.72
2022-11-07T06:03:00,crh,4.73
2022-11-07T06:04:00,crh,3.19
2022-11-07T06:05:00,crh,3.19
2022-11-07T06:06:00,crh,4.70
2022-11-07T06:07:00,crh,3.18
2022-11-07T06:08:00,crh,4.71
2022-11-07T06:09:00,crh,4.82
2022-11-07T06:10:00,crh,4.81
2022-11-07T06:11:00,crh,3.59
2022-11-07T06:12:00,crh,3.58
2022-11-07T06:13:00,crh,3.58
2022-11-07T06:14:00,crh,3.59
2022-11-07T06:15:00,crh,3.58
2022-11-07T06:16:00,crh,3.78
2022-11-07T06:17:00,crh,3.64
2022-11-07T06:18:00,crh,5.20
2022-11-07T06:19:00,crh,5.20
2022-11-07T06:20:00,crh,5.17
2022-11-07T06:21:00,crh,3.62
2022-11-07T06:22:00,crh,5.08
2022-11-07T06:23:00,crh,5.08
2022-11-07T06:24:00,crh,5.09
2022-11-07T06:25:00,crh,5.02
2022-11-07T06:26:00,crh,8.50
2022-11-07T06:27:00,crh,6.69
2022-11-07T06:28:00,crh,6.77
2022-11-07T06:29:00,crh,6.67
2022-11-07T06:30:00,crh,4.07
2022-11-07T06:31:00,crh,2.97
2022-11-07T06:32:00,crh,2.98
2022-11-07T06:33:00,crh,4.51
2022-11-07T06:34:00,crh,4.50
2022-11-07T06:35:00,crh,4.32
2022-11-07T06:36:00,crh,2.98
2022-11-07T06:37:00,crh,2.98
2022-11-07T06:38:00,crh,4.51
2022-11-07T06:39:00,crh,4.51
2022-11-07T06:40:00,crh,2.98
2022-11-07T06:41:00,crh,2.98
2022-11-07T06:42:00,crh,2.98
2022-11-07T06:43:00,crh,2.98
2022-11-07T06:44:00,crh,2.98
2022-11-07T06:45:00,crh,2.99
2022-11-07T06:46:00,crh,2.98
2022-11-07T06:47:00,crh,3.17
2022-11-07T06:48:00,crh,3.00
2022-11-07T06:49:00,crh,6.40
2022-11-07T06:50:00,crh,5.00
2022-11-07T06:51:00,crh,6.48
2022-11-07T06:52:00,crh,5.02
2022-11-07T06:53:00,crh,5.05
2022-11-07T06:54:00,crh,3.04
2022-11-07T06:55:00,crh,3.06
2022-11-07T06:56:00,crh,4.58
2022-11-07T06:57:00,crh,4.61
2022-11-07T06:58:00,crh,3.04
2022-11-07T06:59:00,crh,3.04
2022-11-07T07:00:00,crh,3.04
2022-11-07T07:01:00,crh,3.63
2022-11-07T07:02:00,crh,3.62
2022-11-07T07:03:00,crh,3.99
2022-11-07T07:04:00,crh,3.98
2022-11-07T07:05:00,crh,3.98
2022-11-07T07:06:00,crh,3.99
2022-11-07T07:07:00,crh,5.51
2022-11-07T07:08:00,crh,3.98
2022-11-07T07:09:00,crh,4.52
2022-11-07T07:10:00,crh,5.14
2022-11-07T07:11:00,crh,3.97
2022-11-07T07:12:00,crh,3.97
2022-11-07T07:13:00,crh,3.96
2022-11-07T07:14:00,crh,5.50
2022-11-07T07:15:00,crh,3.96
2022-11-07T07:16:00,crh,5.49
2022-11-07T07:17:00,crh,5.51
2022-11-07T07:18:00,crh,4.86
2022-11-07T07:19:00,crh,3.57
2022-11-07T07:20:00,crh,3.57
2022-11-07T07:21:00,crh,3.57
2022-11-07T07:22:00,crh,5.10
2022-11-07T07:23:00,crh,5.10
2022-11-07T07:24:00,crh,3.56
2022-11-07T07:25:00,crh,8.56
2022-11-07T07:26:00,crh,9.91
2022-11-07T07:27:00,crh,8.71
2022-11-07T07:28:00,crh,16.76
2022-11-07T07:29:00,crh,12.76
2022-11-07T07:30:00,crh,12.60
2022-11-07T07:31:00,crh,3.55
2022-11-07T07:32:00,crh,3.53
2022-11-07T07:33:00,crh,3.50
2022-11-07T07:34:00,crh,3.54
2022-11-07T07:35:00,crh,5.07
2022-11-07T07:36:00,crh,3.54
2022-11-07T07:37:00,crh,3.53
2022-11-07T07:38:00,crh,3.74
2022-11-07T07:39:00,crh,3.70
2022-11-07T07:40:00,crh,3.75
2022-11-07T07:41:00,crh,3.77
2022-11-07T07:42:00,crh,4.59
2022-11-07T07:43:00,crh,3.76
2022-11-07T07:44:00,crh,6.54
2022-11-07T07:45:00,crh,5.31
2022-11-07T07:46:00,crh,5.31
2022-11-07T07:47:00,crh,5.33
2022-11-07T07:48:00,crh,3.79
2022-11-07T07:49:00,crh,4.50
2022-11-07T07:50:00,crh,5.33
2022-11-07T07:51:00,crh,3.76
2022-11-07T07:52:00,crh,5.49
2022-11-07T07:53:00,crh,6.26
2022-11-07T07:54:00,crh,16.74
2022-11-07T07:55:00,crh,6.29
2022-11-07T07:56:00,crh,6.30
2022-11-07T07:57:00,crh,6.29
2022-11-07T07:58:00,crh,4.25
2022-11-07T07:59:00,crh,4.23
2022-11-07T08:00:00,crh,4.21
2022-11-07T08:01:00,crh,4.46
2022-11-07T08:02:00,crh,4.36
2022-11-07T08:03:00,crh,4.46
2022-11-07T08:04:00,crh,6.06
2022-11-07T08:05:00,crh,4.48
2022-11-07T08:06:00,crh,4.48
2022-11-07T08:07:00,crh,7.96
2022-11-07T08:08:00,crh,9.28
2022-11-07T08:09:00,crh,9.46
2022-11-07T08:10:00,crh,7.97
2022-11-07T08:11:00,crh,4.23
2022-11-07T08:12:00,crh,4.22
2022-11-07T08:13:00,crh,4.23
2022-11-07T08:14:00,crh,4.23
2022-11-07T08:15:00,crh,4.23
2022-11-07T08:16:00,crh,4.23
2022-11-07T08:17:00,crh,4.30
2022-11-07T08:18:00,crh,4.29
2022-11-07T08:19:00,crh,4.23
2022-11-07T08:20:00,crh,4.20
2022-11-07T08:21:00,crh,5.05
2022-11-07T08:22:00,crh,5.75
2022-11-07T08:23:00,crh,4.37
2022-11-07T08:24:00,crh,4.37
2022-11-07T08:25:00,crh,4.17
2022-11-07T08:26:00,crh,4.73
2022-11-07T08:27:00,crh,4.18
2022-11-07T08:28:00,crh,4.70
2022-11-07T08:29:00,crh,5.76
2022-11-07T08:30:00,crh,4.17
2022-11-07T08:31:00,crh,4.08
2022-11-07T08:32:00,crh,4.07
2022-11-07T08:33:00,crh,4.07
2022-11-07T08:34:00,crh,4.12
2022-11-07T08:35:00,crh,3.81
2022-11-07T08:36:00,crh,3.81
2022-11-07T08:37:00,crh,3.71
2022-11-07T08:38:00,crh,3.70
2022-11-07T08:39:00,crh,5.28
2022-11-07T08:40:00,crh,3.71
2022-11-07T08:41:00,crh,7.89
2022-11-07T08:42:00,crh,7.36
2022-11-07T08:43:00,crh,7.88
2022-11-07T08:44:00,crh,10.62
2022-11-07T08:45:00,crh,9.44
2022-11-07T08:46:00,crh,9.46
2022-11-07T08:47:00,crh,4.11
2022-11-07T08:48:00,crh,4.17
2022-11-07T08:49:00,crh,4.16
2022-11-07T08:50:00,crh,4.16
2022-11-07T08:51:00,crh,5.73
2022-11-07T08:52:00,crh,5.01
2022-11-07T08:53:00,crh,6.07
2022-11-07T08:54:00,crh,4.19
2022-11-07T08:55:00,crh,4.16
2022-11-07T08:56:00,crh,4.70
2022-11-07T08:57:00,crh,5.66
2022-11-07T08:58:00,crh,4.19
2022-11-07T08:59:00,crh,3.74
2022-11-07T09:00:00,crh,3.75
2022-11-07T09:01:00,crh,3.74
2022-11-07T09:02:00,crh,5.80
2022-11-07T09:03:00,crh,5.71
2022-11-07T09:04:00,crh,5.83
2022-11-07T09:05:00,crh,7.42
2022-11-07T09:06:00,crh,7.23
2022-11-07T09:07:00,crh,5.13
2022-11-07T09:08:00,crh,3.55
2022-11-07T09:09:00,crh,3.51
2022-11-07T09:10:00,crh,3.51
2022-11-07T09:11:00,crh,3.50
2022-11-07T09:12:00,crh,3.50
2022-11-07T09:13:00,crh,3.50
2022-11-07T09:14:00,crh,3.49
2022-11-07T09:15:00,crh,3.50
2022-11-07T09:16:00,crh,3.49
2022-11-07T09:17:00,crh,3.49
2022-11-07T09:18:00,crh,5.06
2022-11-07T09:19:00,crh,5.16
2022-11-07T09:20:00,crh,3.59
2022-11-07T09:21:00,crh,3.76
2022-11-07T09:22:00,crh,3.95
2022-11-07T09:23:00,crh,3.97
2022-11-07T09:24:00,crh,3.96
2022-11-07T09:25:00,crh,7.67
2022-11-07T09:26:00,crh,9.32
2022-11-07T09:27:00,crh,8.42
2022-11-07T09:28:00,crh,7.87
2022-11-07T09:29:00,crh,7.85
2022-11-07T09:30:00,crh,5.37
2022-11-07T09:31:00,crh,5.63
2022-11-07T09:32:00,crh,5.70
2022-11-07T09:33:00,crh,4.07
2022-11-07T09:34:00,crh,4.54
2022-11-07T09:35:00,crh,4.52
2022-11-07T09:36:00,crh,6.03
2022-11-07T09:37:00,crh,6.13
2022-11-07T09:38:00,crh,6.21
2022-11-07T09:39:00,crh,4.48
2022-11-07T09:40:00,crh,4.47
2022-11-07T09:41:00,crh,4.47
2022-11-07T09:42:00,crh,4.45
2022-11-07T09:43:00,crh,4.45
2022-11-07T09:44:00,crh,6.01
2022-11-07T09:45:00,crh,4.46
2022-11-07T09:46:00,crh,5.94
2022-11-07T09:47:00,crh,4.36
2022-11-07T09:48:00,crh,4.37
2022-11-07T09:49:00,crh,3.98
2022-11-07T09:50:00,crh,5.51
2022-11-07T09:51:00,crh,3.95
2022-11-07T09:52:00,crh,13.52
2022-11-07T09:53:00,crh,13.37
2022-11-07T09:54:00,crh,13.13
2022-11-07T09:55:00,crh,5.08
2022-11-07T09:56:00,crh,6.52
2022-11-07T09:57:00,crh,7.50
2022-11-07T09:58:00,crh,5.97
2022-11-07T09:59:00,crh,6.11
2022-11-07T10:00:00,crh,6.04
2022-11-07T10:01:00,crh,3.91
2022-11-07T10:02:00,crh,3.91
2022-11-07T10:03:00,crh,3.90
2022-11-07T10:04:00,crh,5.47
2022-11-07T10:05:00,crh,3.96
2022-11-07T10:06:00,crh,4.48
2022-11-07T10:07:00,crh,4.60
2022-11-07T10:08:00,crh,4.85
2022-11-07T10:09:00,crh,6.33
2022-11-07T10:10:00,crh,4.79
2022-11-07T10:11:00,crh,4.79
2022-11-07T10:12:00,crh,5.08
2022-11-07T10:13:00,crh,15.07
2022-11-07T10:14:00,crh,4.76
2022-11-07T10:15:00,crh,4.70
2022-11-07T10:16:00,crh,4.70
2022-11-07T10:17:00,crh,4.70
2022-11-07T10:18:00,crh,4.80
2022-11-07T10:19:00,crh,8.38
2022-11-07T10:20:00,crh,10.15
2022-11-07T10:21:00,crh,8.53
2022-11-07T10:22:00,crh,10.13
2022-11-07T10:23:00,crh,4.77
2022-11-07T10:24:00,crh,5.24
2022-11-07T10:25:00,crh,6.74
2022-11-07T10:26:00,crh,6.73
2022-11-07T10:27:00,crh,5.37
2022-11-07T10:28:00,crh,5.27
2022-11-07T10:29:00,crh,5.26
2022-11-07T10:30:00,crh,5.25
2022-11-07T10:31:00,crh,6.50
2022-11-07T10:32:00,crh,7.86
2022-11-07T10:33:00,crh,7.78
2022-11-07T10:34:00,crh,8.41
2022-11-07T10:35:00,crh,7.66
2022-11-07T10:36:00,crh,6.75
2022-11-07T10:37:00,crh,5.28
2022-11-07T10:38:00,crh,5.47
2022-11-07T10:39:00,crh,6.44
2022-11-07T10:40:00,crh,4.91
2022-11-07T10:41:00,crh,4.93
2022-11-07T10:42:00,crh,4.92
2022-11-07T10:43:00,crh,4.98
2022-11-07T10:44:00,crh,4.98
2022-11-07T10:45:00,crh,5.51
2022-11-07T10:46:00,crh,6.53
2022-11-07T10:47:00,crh,4.98
2022-11-07T10:48:00,crh,4.96
2022-11-07T10:49:00,crh,4.95
2022-11-07T10:50:00,crh,7.11
2022-11-07T10:51:00,crh,6.88
2022-11-07T10:52:00,crh,8.56
2022-11-07T10:53:00,crh,6.99
2022-11-07T10:54:00,crh,8.54
2022-11-07T10:55:00,crh,4.90
2022-11-07T10:56:00,crh,4.81
2022-11-07T10:57:00,crh,6.02
2022-11-07T10:58:00,crh,4.81
2022-11-07T10:59:00,crh,5.52
2022-11-07T11:00:00,crh,4.82
2022-11-07T11:01:00,crh,4.81
2022-11-07T11:02:00,crh,6.36
2022-11-07T11:03:00,crh,5.26
2022-11-07T11:04:00,crh,6.37
2022-11-07T11:05:00,crh,4.84
2022-11-07T11:06:00,crh,4.82
2022-11-07T11:07:00,crh,6.37
2022-11-07T11:08:00,crh,4.80
2022-11-07T11:09:00,crh,4.80
2022-11-07T11:10:00,crh,4.80
2022-11-07T11:11:00,crh,4.80
2022-11-07T11:12:00,crh,19.88
2022-11-07T11:13:00,crh,8.64
2022-11-07T11:14:00,crh,9.78
2022-11-07T11:15:00,crh,8.97
2022-11-07T11:16:00,crh,5.21
2022-11-07T11:17:00,crh,5.21
2022-11-07T11:18:00,crh,5.20
2022-11-07T11:19:00,crh,5.20
2022-11-07T11:20:00,crh,5.22
2022-11-07T11:21:00,crh,5.34
2022-11-07T11:22:00,crh,5.49
2022-11-07T11:23:00,crh,6.00
2022-11-07T11:24:00,crh,6.87
2022-11-07T11:25:00,crh,5.34
2022-11-07T11:26:00,crh,5.31
2022-11-07T11:27:00,crh,5.31
2022-11-07T11:28:00,crh,6.89
2022-11-07T11:29:00,crh,5.33
2022-11-07T11:30:00,crh,6.46
2022-11-07T11:31:00,crh,4.85
2022-11-07T11:32:00,crh,6.42
2022-11-07T11:33:00,crh,6.39
2022-11-07T11:34:00,crh,6.17
2022-11-07T11:35:00,crh,4.93
2022-11-07T11:36:00,crh,4.91
2022-11-07T11:37:00,crh,6.47
2022-11-07T11:38:00,crh,4.91
2022-11-07T11:39:00,crh,4.91
2022-11-07T11:40:00,crh,6.09
2022-11-07T11:41:00,crh,5.00
2022-11-07T11:42:00,crh,4.97
2022-11-07T11:43:00,crh,4.99
2022-11-07T11:44:00,crh,6.80
2022-11-07T11:45:00,crh,6.92
2022-11-07T11:46:00,crh,7.19
2022-11-07T11:47:00,crh,7.12
2022-11-07T11:48:00,crh,8.66
2022-11-07T11:49:00,crh,6.53
2022-11-07T11:50:00,crh,6.52
2022-11-07T11:51:00,crh,6.53
2022-11-07T11:52:00,crh,4.96
2022-11-07T11:53:00,crh,4.96
2022-11-07T11:54:00,crh,4.96
2022-11-07T11:55:00,crh,4.97
2022-11-07T11:56:00,crh,4.97
2022-11-07T11:57:00,crh,6.50
2022-11-07T11:58:00,crh,6.58
2022-11-07T11:59:00,crh,5.04
2022-11-07T12:00:00,crh,5.02
2022-11-07T12:01:00,crh,4.99
2022-11-07T12:02:00,crh,6.55
2022-11-07T12:03:00,crh,5.02
2022-11-07T12:04:00,crh,5.50
2022-11-07T12:05:00,crh,6.97
2022-11-07T12:06:00,crh,11.10
2022-11-07T12:07:00,crh,10.58
2022-11-07T12:08:00,crh,10.66
2022-11-07T12:09:00,crh,9.11
2022-11-07T12:10:00,crh,9.89
2022-11-07T12:11:00,crh,5.50
2022-11-07T12:12:00,crh,5.33
2022-11-07T12:13:00,crh,5.32
2022-11-07T12:14:00,crh,5.23
2022-11-07T12:15:00,crh,5.23
2022-11-07T12:16:00,crh,5.28
2022-11-07T12:17:00,crh,6.86
2022-11-07T12:18:00,crh,6.86
2022-11-07T12:19:00,crh,5.29
2022-11-07T12:20:00,crh,4.92
2022-11-07T12:21:00,crh,4.90
2022-11-07T12:22:00,crh,4.91
2022-11-07T12:23:00,crh,6.47
2022-11-07T12:24:00,crh,6.43
2022-11-07T12:25:00,crh,4.87
2022-11-07T12:26:00,crh,6.20
2022-11-07T12:27:00,crh,4.80
2022-11-07T12:28:00,crh,6.36
2022-11-07T12:29:00,crh,4.81
2022-11-07T12:30:00,crh,4.86
2022-11-07T12:31:00,crh,4.79
2022-11-07T12:32:00,crh,4.81
2022-11-07T12:33:00,crh,5.89
2022-11-07T12:34:00,crh,4.67
2022-11-07T12:35:00,crh,6.27
2022-11-07T12:36:00,crh,4.72
2022-11-07T12:37:00,crh,5.27
2022-11-07T12:38:00,crh,5.30
2022-11-07T12:39:00,crh,7.38
2022-11-07T12:40:00,crh,8.18
2022-11-07T12:41:00,crh,6.74
2022-11-07T12:42:00,crh,8.82
2022-11-07T12:43:00,crh,6.96
2022-11-07T12:44:00,crh,5.85
2022-11-07T12:45:00,crh,6.19
2022-11-07T12:46:00,crh,4.63
2022-11-07T12:47:00,crh,4.63
2022-11-07T12:48:00,crh,4.63
2022-11-07T12:49:00,crh,6.19
2022-11-07T12:50:00,crh,6.19
2022-11-07T12:51:00,crh,4.84
2022-11-07T12:52:00,crh,4.87
2022-11-07T12:53:00,crh,4.91
2022-11-07T12:54:00,crh,4.90
2022-11-07T12:55:00,crh,5.34
2022-11-07T12:56:00,crh,5.85
2022-11-07T12:57:00,crh,5.28
2022-11-07T12:58:00,crh,5.38
2022-11-07T12:59:00,crh,5.27
2022-11-07T13:00:00,crh,6.82
2022-11-07T13:01:00,crh,6.83
2022-11-07T13:02:00,crh,5.27
2022-11-07T13:03:00,crh,8.89
2022-11-07T13:04:00,crh,8.94
2022-11-07T13:05:00,crh,9.07
2022-11-07T13:06:00,crh,9.22
2022-11-07T13:07:00,crh,7.06
2022-11-07T13:08:00,crh,8.24
2022-11-07T13:09:00,crh,7.40
2022-11-07T13:10:00,crh,4.87
2022-11-07T13:11:00,crh,4.88
2022-11-07T13:12:00,crh,6.13
2022-11-07T13:13:00,crh,14.47
2022-11-07T13:14:00,crh,14.29
2022-11-07T13:15:00,crh,14.00
2022-11-07T13:16:00,crh,15.44
2022-11-07T13:17:00,crh,6.34
2022-11-07T13:18:00,crh,8.32
2022-11-07T13:19:00,crh,4.77
2022-11-07T13:20:00,crh,4.68
2022-11-07T13:21:00,crh,4.68
2022-11-07T13:22:00,crh,6.27
2022-11-07T13:23:00,crh,6.17
2022-11-07T13:24:00,crh,6.15
2022-11-07T13:25:00,crh,6.17
2022-11-07T13:26:00,crh,4.62
2022-11-07T13:27:00,crh,4.63
2022-11-07T13:28:00,crh,5.87
2022-11-07T13:29:00,crh,4.69
2022-11-07T13:30:00,crh,4.68
2022-11-07T13:31:00,crh,6.23
2022-11-07T13:32:00,crh,6.22
2022-11-07T13:33:00,crh,6.71
2022-11-07T13:34:00,crh,8.24
2022-11-07T13:35:00,crh,7.35
2022-11-07T13:36:00,crh,7.38
2022-11-07T13:37:00,crh,7.39
2022-11-07T13:38:00,crh,4.66
2022-11-07T13:39:00,crh,4.67
2022-11-07T13:40:00,crh,6.21
2022-11-07T13:41:00,crh,4.67
2022-11-07T13:42:00,crh,4.67
2022-11-07T13:43:00,crh,6.21
2022-11-07T13:44:00,crh,4.68